Flag for Germany Weather past 2 weeks in Wermelskirchen, North Rhine-Westphalia, Germany

Now
46 °F

Clear.


Feels Like: 44 °F
Forecast: 36 / 56 °F
Wind: 5 mph from Northeast

Location: Koeln / Bonn

Current Time: Apr 18, 2015 at 11:01:29 PM

Latest Report: Apr 18, 2015 at 10:20 PM


Visibility: 10 mi

Pressure: 30.27 "Hg

Humidity: 50%

Dew point: 28 °F

Location of WermelskirchenLocation

Historic Weather in Wermelskirchen — Graph

°F

Wermelskirchen temperature yesterday

Maximum temperature yesterday: 57 °F (at 1:50 PM)
Minimum temperature yesterday: 43 °F (at 11:20 PM)
Average temperature yesterday: 50 °F

Past Weeks' High & Low Weather Summary

 TemperatureHumidityPressure
High77 °F (Apr 15, 4:20 PM)100% (Apr 7, 4:20 AM)30.66 "Hg (Apr 7, 4:20 AM)
Low27 °F (Apr 7, 6:50 AM)16% (Apr 10, 6:20 PM)29.89 "Hg (Apr 16, 5:50 PM)
Average50 °F60%30.25 "Hg
* Reported Apr 3 9:20 PM — Apr 18 9:50 PM, Wermelskirchen, Weather by CustomWeather, © 2015

Note: Actual official high and low records may vary slightly from our data, if they occured in-between our weather recording intervals... More about our weather records

Advertising

Wermelskirchen weather history for previous 24 hours

 ConditionsComfort  
Time TempWeatherWind HumidityBarometerVisibility
9:50 PM
Sat, Apr 18
48 °FClear.7 mph43%30.24 "Hg10 mi
9:20 PM50 °FSunny.7 mph40%30.24 "Hg10 mi
8:50 PM52 °FSunny.6 mph38%30.24 "Hg10 mi
8:20 PM54 °FSunny.9 mph35%30.24 "Hg10 mi
7:50 PM55 °FSunny.10 mph33%30.24 "Hg10 mi
7:20 PM55 °FSunny.12 mph33%30.24 "Hg10 mi
6:50 PM57 °FSunny.10 mph31%30.24 "Hg10 mi
6:20 PM57 °FSunny.9 mph31%30.24 "Hg10 mi
5:50 PM57 °FPassing clouds.5 mph31%30.24 "HgN/A
5:20 PM57 °FSunny.3 mph31%30.24 "Hg10 mi
4:50 PM59 °FPassing clouds.7 mph29%30.24 "HgN/A
4:20 PM59 °FSunny.1 mph29%30.27 "Hg10 mi
3:50 PM57 °FPassing clouds.5 mph29%30.27 "HgN/A
3:20 PM57 °FSunny.8 mph31%30.27 "Hg10 mi
2:50 PM57 °FPassing clouds.7 mph31%30.30 "HgN/A
2:20 PM55 °FPassing clouds.5 mph31%30.30 "HgN/A
1:50 PM55 °FPassing clouds.6 mph33%30.30 "HgN/A
1:20 PM55 °FSunny.8 mph33%30.30 "Hg10 mi
12:50 PM54 °FSunny.12 mph33%30.30 "Hg10 mi
12:20 PM54 °FSunny.14 mph35%30.30 "Hg10 mi
11:50 AM54 °FSunny.14 mph35%30.33 "Hg10 mi
11:20 AM54 °FSunny.15 mph35%30.30 "Hg10 mi
10:50 AM52 °FPassing clouds.10 mph41%30.30 "HgN/A
10:20 AM52 °FPassing clouds.10 mph47%30.30 "HgN/A
9:50 AM48 °FPassing clouds.13 mph50%30.30 "HgN/A
9:20 AM46 °FPassing clouds.8 mph62%30.30 "HgN/A
8:50 AM43 °FSunny.1 mph71%30.30 "Hg10 mi
8:20 AM39 °FSunny.2 mph81%30.30 "Hg10 mi
7:50 AM36 °FSunny.2 mph81%30.30 "Hg10 mi
7:20 AM32 °FClear.1 mph93%30.27 "Hg10 mi
6:50 AM34 °FClear.1 mph87%30.27 "Hg10 mi
6:20 AM34 °FClear.1 mph81%30.27 "Hg10 mi
5:50 AM34 °FClear.3 mph87%30.24 "Hg10 mi
5:20 AM36 °FClear.2 mph75%30.24 "Hg10 mi
4:50 AM34 °FClear.2 mph81%30.24 "Hg10 mi
4:20 AM37 °FClear.5 mph70%30.24 "Hg10 mi
3:50 AM37 °FClear.7 mph75%30.24 "Hg10 mi
3:20 AM37 °FClear.7 mph75%30.24 "Hg10 mi
2:50 AM37 °FClear.5 mph75%30.24 "Hg10 mi
2:20 AM37 °FClear.2 mph75%30.24 "Hg10 mi
1:50 AM39 °FClear.3 mph70%30.24 "Hg10 mi
1:20 AM39 °FClear.5 mph70%30.21 "Hg10 mi
12:50 AM41 °FClear.5 mph66%30.21 "Hg10 mi
12:20 AM41 °FClear.5 mph70%30.21 "Hg10 mi
11:50 PM
Fri, Apr 17
43 °FClear.5 mph61%30.18 "Hg10 mi
11:20 PM43 °FClear.5 mph61%30.18 "Hg10 mi
Weather by CustomWeather, © 2015

See weather overviewHow to use our weather pages